EW3925 Weather Reports


Display with metric or nautical units.
time (UTC)temp
F
wind
direction
speed
MPH
gust
MPH
rain 1hr
in
rain 24hr
in
rain mn
in
humidity
%
barometer
mb
20190120050030 25 135 0.0 0.0 0.00 0.00 0.00 80 1017.3
20190120044557 25 135 0.0 0.0 0.00 0.00 0.00 81 1017.4
20190120043027 25 135 0.0 0.0 0.00 0.00 0.00 81 1017.4
20190120041530 25 135 0.0 0.0 0.00 0.00 0.00 82 1017.5
20190120040030 25 135 0.0 0.0 0.00 0.00 0.00 81 1017.8
20190120034523 25 135 0.0 0.0 0.00 0.00 0.00 81 1018.1
20190120033009 25 135 0.0 0.0 0.00 0.00 0.00 81 1018.1
20190120031506 25 135 0.0 0.0 0.00 0.00 0.00 81 1018.3
20190120030013 25 135 0.0 0.0 0.00 0.00 0.00 80 1018.3
20190120024502 25 135 0.0 0.0 0.00 0.00 0.00 80 1018.3
20190120023154 25 135 0.0 0.0 0.00 0.00 0.00 80 1018.3
20190120021735 26 135 0.0 0.0 0.00 0.00 0.00 79 1018.4
20190120020252 26 135 0.0 0.0 0.00 0.00 0.00 80 1018.5
20190120014738 26 135 0.0 0.0 0.00 0.00 0.00 80 1018.7
20190120013222 26 135 0.0 0.0 0.00 0.00 0.00 80 1018.8
20190120011731 26 135 0.0 0.0 0.00 0.00 0.00 79 1019.1
20190120010117 26 135 0.0 0.0 0.00 0.00 0.00 79 1019.1
20190120004628 26 135 0.0 0.0 0.00 0.00 0.00 80 1019.1
20190120003120 25 135 0.0 0.0 0.00 0.00 0.00 80 1019.1
20190120001659 25 135 0.0 0.0 0.00 0.00 0.00 80 1019.1
20190120000231 25 135 0.0 0.0 0.00 0.00 0.00 80 1019.2
20190119234748 25 135 0.0 0.0 0.00 0.00 0.00 80 1019.2
20190119233205 25 135 0.0 0.0 0.00 0.00 0.00 80 1019.5
20190119231719 26 135 0.0 0.0 0.00 0.00 0.00 79 1019.7
20190119230133 26 135 0.0 0.0 0.00 0.00 0.00 78 1019.7
20190119224607 26 135 0.0 0.0 0.00 0.00 0.01 77 1019.8
20190119223144 26 135 0.0 0.0 0.00 0.00 0.01 77 1020.0
20190119221600 26 135 0.0 0.0 0.00 0.00 0.01 77 1020.0
20190119220137 27 135 0.0 0.0 0.00 0.00 0.01 77 1020.1
20190119214548 26 135 0.0 0.0 0.00 0.00 0.01 79 1020.1
20190119213110 26 135 0.0 0.0 0.00 0.00 0.01 79 1020.4
20190119211611 26 135 0.0 0.0 0.00 0.00 0.01 79 1020.4
20190119210042 26 135 0.0 0.0 0.00 0.00 0.01 79 1020.6
20190119204557 27 135 0.0 0.0 0.00 0.00 0.01 78 1020.7
20190119203115 27 135 0.0 0.0 0.00 0.00 0.01 77 1020.8
20190119201622 27 135 0.0 0.0 0.00 0.00 0.01 76 1020.8
20190119200040 27 135 0.0 0.0 0.00 0.00 0.01 76 1020.8
20190119194616 28 135 0.0 0.0 0.00 0.00 0.01 76 1021.0
20190119193042 28 135 0.0 0.0 0.00 0.00 0.01 77 1021.0
20190119191552 28 135 0.0 0.0 0.00 0.00 0.01 78 1021.0
20190119190050 28 135 0.0 0.0 0.00 0.00 0.01 77 1021.1
20190119184600 28 135 0.0 0.0 0.00 0.00 0.01 75 1021.2
20190119183120 28 135 0.0 0.0 0.00 0.00 0.01 75 1021.4
20190119181639 28 135 0.0 0.0 0.00 0.00 0.01 75 1021.3
20190119180053 28 135 0.0 0.0 0.00 0.00 0.01 75 1021.2
20190119174556 28 135 0.0 0.0 0.00 0.00 0.01 76 1021.2
20190119173126 28 135 0.0 0.0 0.00 0.00 0.01 76 1021.2
20190119171544 28 135 1.0 0.0 0.00 0.00 0.01 76 1021.2
20190119170047 28 135 0.0 0.0 0.00 0.00 0.01 76 1021.3
20190119164543 28 135 1.0 0.0 0.00 0.00 0.01 77 1021.2
20190119163133 28 136 0.0 0.0 0.00 0.00 0.01 78 1021.3
20190119161551 28 136 0.0 0.0 0.00 0.00 0.01 79 1021.4
20190119160047 28 136 0.0 0.0 0.00 0.00 0.01 78 1021.4
20190119154533 28 136 0.0 0.0 0.00 0.00 0.01 77 1021.6
20190119153054 28 136 0.0 0.0 0.00 0.00 0.01 76 1021.6
20190119151534 29 136 0.0 0.0 0.00 0.00 0.01 76 1021.5
20190119150026 29 136 1.0 0.0 0.00 0.00 0.01 75 1021.5
20190119144541 30 136 1.0 0.0 0.00 0.00 0.01 75 1021.3
20190119143029 30 136 1.0 0.0 0.00 0.00 0.01 74 1021.3
20190119141523 31 136 2.0 0.0 0.00 0.00 0.01 72 1021.4
20190119140038 31 126 2.0 0.0 0.00 0.00 0.01 72 1021.4
20190119134539 31 124 2.0 0.0 0.00 0.00 0.01 71 1021.3
20190119133031 32 122 2.0 0.0 0.00 0.00 0.01 70 1021.4
20190119131533 32 118 1.0 0.0 0.00 0.00 0.01 70 1021.5
20190119130026 32 144 2.0 0.0 0.00 0.00 0.01 70 1021.5
20190119124523 32 133 2.0 0.0 0.00 0.00 0.01 71 1021.6
20190119123029 32 104 2.0 0.0 0.00 0.00 0.01 72 1021.6
20190119121520 31 100 3.0 0.0 0.00 0.00 0.01 73 1022.0
20190119120033 31 57 3.0 0.0 0.00 0.00 0.01 72 1022.0
20190119114515 31 96 2.0 0.0 0.00 0.00 0.01 71 1022.0
20190119113046 31 116 2.0 0.0 0.00 0.00 0.01 72 1022.2
20190119111516 31 120 1.0 0.0 0.00 0.00 0.01 73 1022.3
20190119110026 31 125 2.0 0.0 0.00 0.00 0.01 73 1022.5
20190119104512 31 69 2.0 0.0 0.00 0.00 0.01 73 1022.8
20190119103026 30 149 3.0 0.0 0.00 0.00 0.01 75 1022.8
20190119101506 30 92 3.0 0.0 0.00 0.00 0.01 76 1022.9
20190119100003 29 148 2.0 0.0 0.00 0.00 0.01 77 1022.9
20190119094724 29 119 2.0 0.0 0.00 0.00 0.01 78 1023.2
20190119093137 29 107 2.0 0.0 0.00 0.00 0.00 79 1023.3
20190119091715 29 134 1.0 0.0 0.00 0.00 0.00 80 1023.2
20190119090120 28 86 2.0 0.0 0.00 0.00 0.00 82 1023.3
20190119084645 27 80 3.0 0.0 0.00 0.00 0.00 82 1023.2
20190119083141 28 88 2.0 0.0 0.00 0.00 0.00 84 1023.3
20190119081632 27 76 1.0 0.0 0.00 0.00 0.00 85 1023.3
20190119080237 26 71 0.0 0.0 0.00 0.00 0.00 86 1023.1
20190119074641 25 70 0.0 0.0 0.00 0.00 0.00 87 1023.1
20190119073148 25 70 1.0 0.0 0.00 0.00 0.00 87 1023.3
20190119071610 24 70 0.0 0.0 0.00 0.00 0.00 88 1023.2
20190119070104 24 70 1.0 0.0 0.00 0.00 0.00 88 1023.1
20190119064609 24 70 0.0 0.0 0.00 0.00 0.00 88 1023.0
20190119063058 24 70 2.0 0.0 0.00 0.00 0.00 87 1022.8
20190119061535 25 70 4.0 0.0 0.00 0.00 0.00 88 1022.7
20190119060045 24 70 0.0 0.0 0.00 0.00 0.00 89 1022.7
20190119054524 24 70 0.0 0.0 0.00 0.00 0.00 89 1022.7
20190119053057 24 70 0.0 0.0 0.00 0.00 0.00 88 1022.5
20190119051529 25 70 1.0 0.0 0.00 0.00 0.00 88 1022.3